Home   Weather   Hadera   Past weeks

Flag for Israel Past Weather in Hadera, Israel — Yesterday and Last 2 Weeks

Now
52 °F

Clear.


Feels Like: 49 °F
Forecast: 50 / 71 °F
Wind: 7 mph from East

Location: Dov Airport

Current Time: Feb 24, 2017 at 5:37:30 am

Latest Report: Feb 24, 2017 at 4:50 am


Visibility: 5 mi

Pressure: 30.24 "Hg

Humidity: 88%

Dew Point: 48 °F

Location of HaderaLocation

Past Weather in Hadera — Graph

°F

Hadera Temperature Yesterday

Maximum temperature yesterday: 64 °F (at 12:50 pm)
Minimum temperature yesterday: 50 °F (at 5:50 am)
Average temperature yesterday: 59 °F

High & Low Weather Summary for the Past Weeks

 TemperatureHumidityPressure
High68 °F (Feb 10, 10:50 am)94% (Feb 11, 6:00 am)30.39 "Hg (Feb 11, 6:00 am)
Low45 °F (Feb 17, 5:00 am)18% (Feb 19, 4:50 pm)29.92 "Hg (Feb 11, 12:50 pm)
Average56 °F66%30.10 "Hg
* Reported Feb 9 5:30 am — Feb 24 4:00 am, Hadera, Weather by CustomWeather, © 2017

Note: Actual official high and low records may vary slightly from our data, if they occured in-between our weather recording intervals... More about our weather records

Advertising

Hadera Weather History for the Previous 24 Hours

Scroll right to see more
 ConditionsComfort  
Time TempWeatherWind HumidityBarometerVisibility
4:00 am
Fri, Feb 24
52 °FClear.6 mph88%30.21 "Hg4 mi
10:50 pm
Thu, Feb 23
55 °FPassing clouds.6 mph82%30.24 "HgN/A
9:50 pm57 °FPassing clouds.3 mph77%30.24 "HgN/A
8:50 pm59 °FPassing clouds.2 mph72%30.21 "HgN/A
7:50 pm59 °FPassing clouds.2 mph72%30.21 "HgN/A
6:50 pm61 °FPassing clouds.5 mph68%30.21 "HgN/A
5:50 pm61 °FPassing clouds.6 mph68%30.18 "HgN/A
4:50 pm63 °FPassing clouds.10 mph68%30.18 "HgN/A
3:50 pm64 °FPassing clouds.10 mph64%30.18 "HgN/A
2:50 pm64 °FPassing clouds.8 mph64%30.18 "HgN/A
1:50 pm64 °FPassing clouds.6 mph64%30.18 "HgN/A
12:50 pm64 °FPassing clouds.6 mph68%30.18 "HgN/A
11:50 am63 °FPassing clouds.7 mph73%30.18 "HgN/A
10:50 am63 °FScattered clouds.9 mph68%30.18 "HgN/A
9:50 am61 °FScattered clouds.6 mph68%30.18 "HgN/A
8:50 am57 °FScattered clouds.5 mph72%30.18 "HgN/A
7:50 am54 °FScattered clouds.5 mph77%30.15 "Hg4 mi
6:50 am50 °FScattered clouds.3 mph82%30.15 "Hg4 mi
5:50 am50 °FPassing clouds.5 mph82%30.12 "Hg4 mi
5:30 am52 °FPassing clouds.5 mph77%30.12 "Hg5 mi
Weather by CustomWeather, © 2017

See weather overviewHow to use our weather pages